QPF
0.03 0.03 0.04 0.05 0.05 0.03 0.03 0.03 0.03 0.03 0.03 0.03 0.03 0.03 0.03 0.04 0.03 0.03 0.04 0.04 0.04 0.04 0.04 0.04 0.06 0.06 0.06 0.05 0.04 0.05 0.06 0.06 0.06 0.08 0.10 0.08 0.09 0.08 0.06 0.06 0.06 0.06 0.08
0.02 0.02 0.02 0.03 0.03 0.03 0.03 0.03 0.05 0.02 0.03 0.03 0.03 0.03 0.03 0.03 0.03 0.04 0.05 0.06 0.05 0.03 0.04 0.04 0.03 0.04 0.03 0.02 0.02 0.04 0.04 0.05 0.04 0.10 0.22 0.12 0.12 0.13 0.10 0.08 0.07 0.07 0.08
0.01 0.00 0.01 0.02 0.02 0.03 0.03 0.02 0.03 0.03 0.03 0.02 0.02 0.02 0.03 0.03 0.03 0.04 0.05 0.07 0.06 0.04 0.04 0.05 0.03 0.03 0.02 0.02 0.02 0.04 0.05 0.05 0.04 0.06 0.08 0.07 0.10 0.13 0.12 0.11 0.10 0.12 0.12
0.00 0.00 0.00 0.02 0.03 0.04 0.04 0.03 0.03 0.04 0.03 0.01 0.02 0.02 0.02 0.03 0.03 0.03 0.05 0.07 0.07 0.06 0.07 0.07 0.06 0.04 0.02 0.03 0.04 0.05 0.06 0.05 0.04 0.03 0.04 0.09 0.10 0.12 0.14 0.18 0.15 0.15 0.14
0.01 0.00 0.01 0.02 0.01 0.02 0.02 0.02 0.03 0.02 0.02 0.02 0.02 0.02 0.02 0.04 0.04 0.04 0.05 0.05 0.06 0.06 0.10 0.11 0.08 0.04 0.03 0.03 0.05 0.05 0.05 0.04 0.02 0.01 0.02 0.05 0.08 0.08 0.08 0.11 0.15 0.17 0.13
0.00 0.00 0.00 0.01 0.01 0.01 0.02 0.02 0.01 0.01 0.02 0.02 0.02 0.04 0.04 0.03 0.03 0.03 0.04 0.04 0.05 0.05 0.05 0.06 0.05 0.03 0.03 0.03 0.03 0.03 0.03 0.02 0.01 0.00 0.00 0.01 0.03 0.04 0.03 0.03 0.05 0.09 0.11
0.00 0.00 0.00 0.01 0.03 0.02 0.02 0.02 0.01 0.01 0.02 0.02 0.02 0.04 0.05 0.05 0.04 0.03 0.03 0.03 0.04 0.04 0.04 0.04 0.04 0.03 0.02 0.02 0.02 0.02 0.02 0.02 0.00 0.00 0.00 0.01 0.01 0.03 0.03 0.03 0.04 0.06 0.12
0.00 0.00 0.00 0.01 0.02 0.03 0.04 0.02 0.01 0.01 0.02 0.02 0.02 0.03 0.04 0.05 0.03 0.03 0.02 0.03 0.03 0.04 0.05 0.05 0.04 0.03 0.03 0.02 0.02 0.02 0.02 0.02 0.01 0.01 0.01 0.01 0.02 0.02 0.02 0.02 0.03 0.04 0.08
0.00 0.00 0.00 0.00 0.01 0.06 0.09 0.03 0.02 0.02 0.02 0.03 0.02 0.04 0.02 0.02 0.03 0.03 0.03 0.03 0.03 0.04 0.04 0.04 0.03 0.04 0.03 0.02 0.02 0.02 0.02 0.02 0.01 0.01 0.01 0.01 0.03 0.03 0.02 0.02 0.03 0.02 0.03
0.01 0.00 0.00 0.01 0.01 0.07 0.15 0.10 0.05 0.03 0.03 0.03 0.02 0.02 0.02 0.03 0.04 0.04 0.03 0.03 0.03 0.03 0.02 0.02 0.02 0.02 0.03 0.02 0.02 0.02 0.02 0.01 0.01 0.01 0.01 0.02 0.03 0.03 0.03 0.02 0.03 0.03 0.04
0.01 0.01 0.01 0.00 0.00 0.03 0.10 0.13 0.07 0.04 0.03 0.02 0.02 0.02 0.03 0.02 0.02 0.02 0.02 0.03 0.03 0.02 0.01 0.01 0.02 0.03 0.03 0.02 0.02 0.02 0.02 0.01 0.01 0.01 0.01 0.03 0.03 0.03 0.03 0.03 0.04 0.04 0.04
0.00 0.01 0.01 0.00 0.00 0.01 0.02 0.04 0.03 0.02 0.02 0.02 0.02 0.03 0.03 0.02 0.01 0.01 0.02 0.03 0.02 0.02 0.02 0.02 0.03 0.05 0.04 0.02 0.01 0.01 0.02 0.02 0.01 0.01 0.02 0.04 0.03 0.03 0.03 0.04 0.04 0.03 0.04
0.00 0.01 0.01 0.00 0.00 0.00 0.01 0.01 0.01 0.01 0.01 0.02 0.02 0.02 0.02 0.02 0.02 0.02 0.02 0.02 0.01 0.01 0.01 0.01 0.02 0.02 0.02 0.02 0.01 0.01 0.03 0.02 0.01 0.01 0.03 0.04 0.03 0.04 0.03 0.03 0.03 0.03 0.04
0.00 0.01 0.01 0.01 0.01 0.00 0.00 0.01 0.01 0.00 0.00 0.01 0.02 0.03 0.02 0.03 0.04 0.03 0.01 0.01 0.01 0.00 0.00 0.01 0.01 0.02 0.02 0.02 0.02 0.02 0.03 0.02 0.01 0.01 0.02 0.04 0.03 0.04 0.04 0.04 0.03 0.03 0.05
0.00 0.01 0.01 0.01 0.01 0.01 0.00 0.01 0.01 0.00 0.00 0.01 0.02 0.02 0.03 0.03 0.04 0.02 0.01 0.00 0.00 0.00 0.01 0.01 0.01 0.02 0.03 0.03 0.02 0.02 0.02 0.01 0.01 0.01 0.01 0.02 0.03 0.04 0.03 0.02 0.03 0.03 0.03
0.00 0.00 0.00 0.01 0.01 0.01 0.01 0.00 0.00 0.00 0.01 0.01 0.02 0.01 0.01 0.01 0.01 0.01 0.01 0.01 0.01 0.01 0.01 0.01 0.02 0.03 0.03 0.03 0.03 0.02 0.02 0.02 0.02 0.02 0.01 0.01 0.02 0.04 0.04 0.03 0.03 0.03 0.02
0.01 0.00 0.00 0.01 0.01 0.01 0.00 0.01 0.00 0.00 0.00 0.00 0.01 0.01 0.01 0.01 0.01 0.01 0.01 0.01 0.01 0.01 0.02 0.02 0.02 0.03 0.03 0.04 0.04 0.04 0.03 0.02 0.02 0.02 0.01 0.01 0.01 0.02 0.03 0.04 0.02 0.02 0.02
0.01 0.01 0.01 0.00 0.00 0.00 0.00 0.00 0.00 0.00 0.00 0.00 0.00 0.00 0.00 0.01 0.01 0.01 0.01 0.01 0.01 0.01 0.02 0.02 0.02 0.03 0.05 0.06 0.07 0.06 0.04 0.02 0.02 0.02 0.01 0.01 0.02 0.02 0.02 0.03 0.03 0.03 0.03
0.01 0.01 0.01 0.00 0.00 0.00 0.00 0.01 0.00 0.01 0.01 0.00 0.01 0.00 0.00 0.01 0.01 0.01 0.01 0.01 0.01 0.01 0.02 0.02 0.03 0.03 0.04 0.06 0.08 0.08 0.05 0.03 0.02 0.02 0.01 0.02 0.02 0.01 0.02 0.02 0.03 0.03 0.03
0.01 0.01 0.01 0.01 0.00 0.00 0.00 0.00 0.00 0.00 0.01 0.01 0.01 0.01 0.01 0.01 0.01 0.01 0.01 0.01 0.01 0.01 0.02 0.02 0.02 0.03 0.04 0.05 0.06 0.07 0.06 0.04 0.02 0.02 0.02 0.02 0.01 0.01 0.01 0.01 0.01 0.02 0.03
0.02 0.02 0.01 0.02 0.02 0.01 0.00 0.00 0.00 0.00 0.01 0.01 0.01 0.01 0.01 0.00 0.01 0.01 0.01 0.02 0.02 0.01 0.01 0.01 0.01 0.02 0.04 0.04 0.04 0.06 0.08 0.06 0.04 0.03 0.02 0.02 0.02 0.02 0.02 0.01 0.01 0.01 0.02
0.02 0.02 0.02 0.02 0.02 0.02 0.01 0.01 0.01 0.00 0.01 0.01 0.01 0.01 0.01 0.01 0.01 0.01 0.01 0.01 0.01 0.02 0.01 0.01 0.01 0.02 0.04 0.04 0.03 0.03 0.05 0.06 0.06 0.06 0.04 0.03 0.03 0.03 0.03 0.02 0.02 0.01 0.01
0.03 0.03 0.03 0.02 0.02 0.02 0.01 0.02 0.02 0.01 0.01 0.01 0.01 0.01 0.01 0.01 0.01 0.01 0.01 0.01 0.01 0.02 0.01 0.01 0.01 0.02 0.04 0.05 0.04 0.02 0.02 0.03 0.04 0.04 0.04 0.04 0.04 0.03 0.03 0.03 0.02 0.02 0.01
0.04 0.04 0.04 0.03 0.02 0.02 0.02 0.02 0.03 0.03 0.02 0.01 0.01 0.01 0.01 0.02 0.02 0.01 0.00 0.01 0.01 0.02 0.01 0.01 0.00 0.01 0.02 0.04 0.04 0.03 0.03 0.03 0.02 0.02 0.02 0.02 0.02 0.02 0.02 0.02 0.02 0.02 0.01
0.02 0.03 0.03 0.04 0.04 0.04 0.04 0.02 0.03 0.03 0.02 0.01 0.01 0.01 0.01 0.02 0.03 0.01 0.01 0.01 0.01 0.01 0.01 0.01 0.01 0.00 0.01 0.02 0.03 0.02 0.02 0.02 0.01 0.01 0.01 0.01 0.01 0.02 0.02 0.03 0.03 0.03 0.03
0.01 0.03 0.04 0.05 0.05 0.05 0.05 0.04 0.03 0.03 0.03 0.03 0.01 0.01 0.01 0.01 0.02 0.01 0.01 0.01 0.01 0.01 0.00 0.00 0.01 0.01 0.01 0.02 0.02 0.02 0.02 0.02 0.01 0.01 0.01 0.01 0.01 0.01 0.02 0.02 0.03 0.03 0.03
MSLP
1011.64 1010.79 1010.06 1009.52 1009.16 1008.94 1008.80 1008.67 1008.50 1008.27 1008.00 1007.75 1007.56 1007.50 1007.58 1007.78 1008.07 1008.38 1008.66 1008.87 1009.00 1009.07 1009.13 1009.22 1009.37 1009.60 1009.89 1010.20 1010.50 1010.76 1010.96 1011.10 1011.21 1011.30 1011.40 1011.52 1011.65 1011.78 1011.88 1011.94 1011.96 1011.94 1011.92
1011.68 1010.86 1010.16 1009.64 1009.28 1009.07 1008.92 1008.79 1008.62 1008.42 1008.20 1008.01 1007.91 1007.92 1008.07 1008.34 1008.67 1009.00 1009.29 1009.50 1009.62 1009.69 1009.73 1009.80 1009.91 1010.09 1010.31 1010.55 1010.77 1010.97 1011.12 1011.24 1011.35 1011.46 1011.59 1011.74 1011.89 1012.03 1012.12 1012.16 1012.15 1012.10 1012.05
1011.65 1010.86 1010.19 1009.69 1009.35 1009.14 1009.00 1008.87 1008.73 1008.56 1008.40 1008.27 1008.24 1008.32 1008.52 1008.82 1009.16 1009.50 1009.78 1009.98 1010.10 1010.16 1010.20 1010.26 1010.36 1010.50 1010.67 1010.85 1011.02 1011.17 1011.30 1011.41 1011.53 1011.68 1011.84 1012.02 1012.20 1012.33 1012.42 1012.44 1012.40 1012.32 1012.24
1011.54 1010.80 1010.18 1009.72 1009.40 1009.21 1009.08 1008.96 1008.84 1008.71 1008.58 1008.51 1008.52 1008.64 1008.87 1009.18 1009.52 1009.84 1010.10 1010.29 1010.41 1010.48 1010.54 1010.61 1010.71 1010.84 1010.99 1011.14 1011.28 1011.40 1011.51 1011.63 1011.77 1011.95 1012.15 1012.35 1012.53 1012.67 1012.73 1012.73 1012.66 1012.57 1012.48
1011.41 1010.74 1010.18 1009.77 1009.50 1009.32 1009.20 1009.10 1008.98 1008.86 1008.76 1008.72 1008.76 1008.89 1009.12 1009.42 1009.73 1010.03 1010.28 1010.47 1010.60 1010.70 1010.78 1010.88 1011.01 1011.15 1011.30 1011.44 1011.56 1011.67 1011.78 1011.91 1012.07 1012.26 1012.48 1012.69 1012.86 1012.98 1013.02 1012.99 1012.90 1012.80 1012.72
1011.31 1010.73 1010.26 1009.92 1009.69 1009.54 1009.43 1009.32 1009.19 1009.07 1008.96 1008.92 1008.96 1009.09 1009.31 1009.59 1009.88 1010.16 1010.40 1010.58 1010.74 1010.87 1011.00 1011.15 1011.31 1011.48 1011.64 1011.78 1011.90 1012.01 1012.12 1012.25 1012.42 1012.61 1012.82 1013.01 1013.16 1013.24 1013.25 1013.19 1013.09 1012.99 1012.92
1011.32 1010.85 1010.48 1010.22 1010.04 1009.91 1009.79 1009.66 1009.50 1009.34 1009.22 1009.16 1009.19 1009.31 1009.51 1009.77 1010.04 1010.30 1010.54 1010.74 1010.91 1011.08 1011.26 1011.45 1011.65 1011.85 1012.03 1012.18 1012.31 1012.41 1012.52 1012.65 1012.80 1012.98 1013.16 1013.31 1013.42 1013.45 1013.41 1013.32 1013.21 1013.11 1013.07
1011.48 1011.13 1010.86 1010.68 1010.55 1010.44 1010.30 1010.12 1009.93 1009.73 1009.57 1009.49 1009.50 1009.61 1009.80 1010.04 1010.30 1010.55 1010.78 1010.99 1011.19 1011.39 1011.61 1011.83 1012.07 1012.29 1012.48 1012.64 1012.76 1012.86 1012.96 1013.07 1013.20 1013.34 1013.48 1013.58 1013.63 1013.61 1013.53 1013.41 1013.28 1013.19 1013.17
1011.78 1011.54 1011.38 1011.28 1011.19 1011.08 1010.92 1010.71 1010.47 1010.23 1010.04 1009.94 1009.94 1010.04 1010.22 1010.46 1010.71 1010.95 1011.18 1011.39 1011.59 1011.80 1012.03 1012.28 1012.53 1012.76 1012.96 1013.12 1013.24 1013.33 1013.41 1013.50 1013.60 1013.70 1013.79 1013.84 1013.83 1013.76 1013.64 1013.49 1013.35 1013.27 1013.26
1012.17 1012.04 1011.97 1011.94 1011.88 1011.77 1011.60 1011.35 1011.08 1010.81 1010.61 1010.50 1010.51 1010.61 1010.80 1011.03 1011.27 1011.50 1011.70 1011.89 1012.08 1012.28 1012.50 1012.74 1012.99 1013.22 1013.42 1013.58 1013.69 1013.77 1013.84 1013.91 1013.97 1014.04 1014.08 1014.08 1014.03 1013.92 1013.77 1013.61 1013.46 1013.38 1013.36
1012.58 1012.54 1012.55 1012.57 1012.54 1012.44 1012.25 1012.00 1011.71 1011.44 1011.25 1011.16 1011.18 1011.30 1011.49 1011.71 1011.93 1012.13 1012.30 1012.45 1012.60 1012.77 1012.96 1013.18 1013.41 1013.63 1013.82 1013.97 1014.08 1014.16 1014.21 1014.26 1014.30 1014.33 1014.34 1014.31 1014.23 1014.11 1013.95 1013.78 1013.64 1013.54 1013.52
1012.95 1012.98 1013.05 1013.10 1013.10 1013.00 1012.82 1012.57 1012.30 1012.07 1011.90 1011.84 1011.89 1012.03 1012.22 1012.43 1012.62 1012.78 1012.89 1012.99 1013.09 1013.21 1013.37 1013.55 1013.76 1013.96 1014.14 1014.28 1014.39 1014.45 1014.50 1014.52 1014.54 1014.55 1014.54 1014.50 1014.42 1014.29 1014.15 1013.99 1013.85 1013.76 1013.71
1013.25 1013.32 1013.43 1013.50 1013.51 1013.43 1013.26 1013.05 1012.82 1012.63 1012.52 1012.51 1012.59 1012.74 1012.93 1013.12 1013.26 1013.37 1013.43 1013.47 1013.51 1013.58 1013.69 1013.84 1014.02 1014.21 1014.38 1014.51 1014.60 1014.66 1014.68 1014.68 1014.68 1014.67 1014.64 1014.60 1014.53 1014.43 1014.31 1014.19 1014.07 1013.98 1013.92
1013.47 1013.56 1013.68 1013.76 1013.77 1013.71 1013.57 1013.40 1013.23 1013.11 1013.06 1013.10 1013.21 1013.37 1013.55 1013.70 1013.80 1013.85 1013.86 1013.84 1013.84 1013.87 1013.95 1014.08 1014.24 1014.40 1014.56 1014.67 1014.74 1014.77 1014.76 1014.73 1014.69 1014.65 1014.62 1014.57 1014.52 1014.46 1014.38 1014.30 1014.21 1014.14 1014.07
1013.64 1013.74 1013.84 1013.91 1013.93 1013.88 1013.78 1013.66 1013.55 1013.49 1013.50 1013.59 1013.72 1013.88 1014.03 1014.15 1014.21 1014.21 1014.18 1014.14 1014.11 1014.12 1014.19 1014.30 1014.44 1014.59 1014.72 1014.80 1014.84 1014.82 1014.76 1014.68 1014.59 1014.51 1014.45 1014.40 1014.36 1014.33 1014.30 1014.27 1014.22 1014.17 1014.11
1013.81 1013.89 1013.97 1014.02 1014.02 1013.98 1013.92 1013.85 1013.81 1013.81 1013.87 1013.97 1014.11 1014.26 1014.38 1014.46 1014.48 1014.46 1014.41 1014.36 1014.34 1014.36 1014.43 1014.54 1014.67 1014.80 1014.90 1014.94 1014.92 1014.83 1014.70 1014.55 1014.40 1014.26 1014.16 1014.09 1014.06 1014.05 1014.05 1014.06 1014.05 1014.03 1013.98
1014.01 1014.06 1014.11 1014.12 1014.11 1014.08 1014.05 1014.03 1014.03 1014.08 1014.16 1014.28 1014.40 1014.52 1014.60 1014.65 1014.65 1014.62 1014.58 1014.55 1014.55 1014.60 1014.69 1014.82 1014.94 1015.05 1015.10 1015.09 1015.00 1014.84 1014.63 1014.40 1014.17 1013.96 1013.81 1013.70 1013.65 1013.64 1013.66 1013.69 1013.72 1013.72 1013.69
1014.24 1014.26 1014.26 1014.24 1014.22 1014.20 1014.19 1014.21 1014.25 1014.32 1014.42 1014.52 1014.61 1014.68 1014.73 1014.74 1014.72 1014.70 1014.69 1014.70 1014.76 1014.85 1014.97 1015.10 1015.23 1015.31 1015.32 1015.25 1015.09 1014.86 1014.58 1014.27 1013.97 1013.70 1013.48 1013.33 1013.24 1013.21 1013.22 1013.25 1013.28 1013.29 1013.27
1014.47 1014.44 1014.40 1014.36 1014.33 1014.32 1014.35 1014.40 1014.47 1014.55 1014.64 1014.71 1014.75 1014.77 1014.77 1014.75 1014.73 1014.72 1014.74 1014.80 1014.91 1015.04 1015.20 1015.35 1015.46 1015.52 1015.49 1015.38 1015.18 1014.90 1014.56 1014.20 1013.85 1013.53 1013.26 1013.06 1012.92 1012.84 1012.81 1012.80 1012.81 1012.80 1012.78
1014.63 1014.57 1014.50 1014.45 1014.42 1014.44 1014.49 1014.57 1014.67 1014.76 1014.82 1014.85 1014.84 1014.80 1014.74 1014.69 1014.66 1014.66 1014.72 1014.82 1014.97 1015.14 1015.32 1015.47 1015.58 1015.62 1015.57 1015.43 1015.21 1014.92 1014.58 1014.21 1013.84 1013.50 1013.20 1012.95 1012.76 1012.62 1012.52 1012.44 1012.39 1012.34 1012.28
1014.68 1014.59 1014.51 1014.46 1014.45 1014.49 1014.59 1014.71 1014.82 1014.92 1014.96 1014.95 1014.88 1014.78 1014.67 1014.57 1014.52 1014.52 1014.60 1014.72 1014.89 1015.08 1015.27 1015.42 1015.52 1015.54 1015.49 1015.36 1015.16 1014.90 1014.60 1014.27 1013.94 1013.61 1013.30 1013.03 1012.78 1012.56 1012.38 1012.22 1012.08 1011.95 1011.84
1014.60 1014.50 1014.41 1014.37 1014.39 1014.48 1014.62 1014.78 1014.93 1015.03 1015.05 1015.00 1014.88 1014.73 1014.56 1014.42 1014.34 1014.32 1014.39 1014.51 1014.68 1014.86 1015.03 1015.16 1015.25 1015.27 1015.23 1015.13 1014.99 1014.80 1014.58 1014.34 1014.08 1013.80 1013.52 1013.23 1012.94 1012.65 1012.38 1012.11 1011.86 1011.64 1011.46
1014.41 1014.30 1014.22 1014.21 1014.27 1014.40 1014.60 1014.80 1014.98 1015.09 1015.11 1015.04 1014.88 1014.67 1014.45 1014.27 1014.14 1014.09 1014.12 1014.22 1014.35 1014.50 1014.64 1014.74 1014.80 1014.82 1014.80 1014.76 1014.69 1014.60 1014.49 1014.35 1014.19 1013.99 1013.74 1013.46 1013.14 1012.79 1012.43 1012.06 1011.71 1011.39 1011.12
1014.19 1014.09 1014.02 1014.03 1014.12 1014.30 1014.54 1014.79 1015.01 1015.14 1015.17 1015.08 1014.89 1014.65 1014.39 1014.16 1013.99 1013.89 1013.88 1013.92 1014.00 1014.08 1014.16 1014.22 1014.25 1014.26 1014.27 1014.27 1014.28 1014.28 1014.28 1014.25 1014.19 1014.06 1013.87 1013.60 1013.25 1012.86 1012.42 1011.97 1011.53 1011.12 1010.78
1014.05 1013.95 1013.89 1013.91 1014.03 1014.24 1014.52 1014.81 1015.05 1015.21 1015.24 1015.16 1014.96 1014.70 1014.42 1014.15 1013.94 1013.79 1013.72 1013.69 1013.70 1013.71 1013.72 1013.72 1013.71 1013.70 1013.71 1013.74 1013.80 1013.87 1013.95 1014.01 1014.01 1013.95 1013.79 1013.52 1013.17 1012.74 1012.25 1011.74 1011.24 1010.77 1010.38
1014.07 1013.97 1013.91 1013.93 1014.06 1014.29 1014.58 1014.89 1015.15 1015.33 1015.38 1015.31 1015.12 1014.86 1014.57 1014.28 1014.03 1013.84 1013.71 1013.61 1013.54 1013.48 1013.41 1013.34 1013.27 1013.22 1013.20 1013.24 1013.31 1013.41 1013.52 1013.61 1013.65 1013.61 1013.46 1013.20 1012.83 1012.38 1011.86 1011.32 1010.79 1010.30 1009.88
Thickness
5756 5761 5763 5764 5766 5767 5768 5769 5770 5770 5772 5773 5774 5774 5775 5775 5776 5776 5776 5776 5776 5776 5776 5776 5776 5777 5777 5776 5776 5777 5777 5777 5777 5777 5777 5777 5777 5776 5775 5774 5774 5773 5773
5758 5760 5761 5763 5764 5765 5766 5767 5768 5769 5769 5770 5771 5772 5772 5773 5773 5773 5774 5774 5774 5774 5774 5774 5774 5774 5774 5774 5774 5774 5775 5774 5774 5774 5774 5774 5774 5774 5773 5772 5772 5771 5771
5758 5759 5760 5761 5762 5763 5764 5765 5766 5766 5767 5768 5768 5769 5769 5770 5770 5771 5771 5771 5771 5771 5771 5771 5771 5771 5771 5772 5772 5772 5772 5772 5772 5772 5771 5771 5771 5771 5770 5770 5770 5770 5769
5757 5757 5758 5759 5759 5760 5761 5762 5763 5764 5764 5765 5765 5766 5766 5767 5767 5768 5768 5768 5768 5768 5768 5768 5768 5768 5768 5768 5768 5769 5769 5769 5769 5769 5768 5768 5768 5767 5768 5767 5768 5767 5766
5755 5756 5756 5757 5757 5758 5759 5759 5760 5760 5761 5761 5762 5763 5763 5764 5764 5764 5765 5765 5765 5765 5765 5765 5765 5765 5765 5765 5765 5765 5766 5766 5766 5765 5765 5765 5765 5765 5765 5765 5765 5764 5764
5753 5753 5754 5754 5755 5756 5756 5757 5757 5757 5758 5758 5758 5759 5760 5760 5760 5761 5761 5761 5761 5761 5761 5761 5761 5762 5762 5762 5762 5762 5762 5762 5761 5761 5761 5761 5761 5762 5762 5762 5762 5762 5761
5750 5751 5751 5752 5752 5753 5753 5754 5754 5754 5754 5755 5755 5755 5756 5756 5757 5757 5757 5757 5757 5757 5757 5757 5758 5758 5758 5758 5758 5758 5758 5757 5757 5757 5757 5758 5758 5759 5759 5759 5759 5758 5758
5748 5748 5749 5749 5750 5750 5750 5751 5751 5751 5751 5751 5751 5752 5752 5752 5752 5752 5753 5753 5753 5753 5753 5753 5754 5754 5754 5754 5754 5754 5753 5753 5753 5753 5753 5754 5754 5755 5755 5755 5755 5755 5755
5746 5745 5745 5746 5746 5747 5748 5750 5749 5748 5747 5747 5748 5748 5748 5748 5748 5748 5749 5749 5749 5749 5750 5750 5750 5750 5750 5750 5750 5749 5749 5749 5749 5749 5750 5750 5751 5751 5751 5751 5751 5751 5751
5742 5742 5742 5742 5743 5744 5745 5746 5745 5744 5744 5744 5744 5744 5744 5744 5744 5744 5745 5745 5745 5745 5745 5746 5746 5746 5745 5745 5745 5745 5745 5745 5745 5745 5745 5746 5746 5746 5746 5746 5746 5746 5746
5738 5739 5739 5739 5740 5740 5741 5740 5740 5740 5739 5739 5739 5740 5740 5740 5740 5740 5740 5740 5741 5741 5741 5742 5742 5742 5741 5740 5740 5740 5740 5740 5740 5741 5741 5742 5742 5742 5742 5742 5742 5742 5742
5734 5735 5737 5737 5737 5738 5738 5737 5737 5736 5735 5735 5735 5736 5736 5736 5735 5735 5736 5736 5736 5737 5737 5737 5737 5737 5736 5736 5735 5736 5736 5736 5736 5736 5737 5737 5737 5737 5737 5737 5737 5737 5737
5735 5735 5735 5735 5735 5735 5735 5734 5733 5733 5732 5732 5732 5732 5732 5731 5731 5731 5731 5731 5732 5732 5732 5732 5732 5732 5732 5731 5731 5731 5731 5731 5731 5731 5732 5732 5733 5733 5733 5732 5732 5732 5732
5735 5734 5734 5734 5733 5732 5732 5731 5730 5730 5729 5729 5729 5729 5728 5728 5727 5727 5727 5727 5727 5727 5727 5727 5727 5727 5727 5726 5726 5726 5726 5726 5726 5726 5726 5727 5728 5728 5728 5727 5727 5727 5727
5733 5733 5733 5733 5731 5730 5729 5729 5728 5727 5727 5727 5726 5726 5726 5725 5724 5723 5723 5723 5723 5723 5723 5723 5722 5722 5722 5722 5721 5721 5720 5720 5720 5721 5721 5721 5722 5723 5723 5722 5722 5722 5722
5732 5732 5733 5732 5730 5729 5728 5727 5726 5725 5725 5724 5724 5724 5723 5722 5721 5720 5719 5719 5719 5719 5719 5718 5718 5718 5717 5717 5716 5716 5716 5715 5715 5716 5715 5716 5717 5717 5717 5717 5718 5717 5717
5732 5732 5732 5730 5729 5727 5726 5725 5724 5723 5723 5722 5721 5721 5720 5719 5718 5717 5716 5715 5715 5715 5715 5715 5714 5713 5712 5712 5711 5711 5711 5711 5711 5711 5711 5711 5711 5712 5712 5712 5712 5712 5711
5731 5730 5730 5730 5727 5725 5724 5723 5722 5721 5720 5719 5719 5718 5717 5716 5715 5714 5712 5711 5711 5711 5711 5710 5709 5707 5706 5706 5705 5705 5706 5706 5706 5706 5706 5706 5706 5706 5706 5707 5707 5707 5706
5730 5728 5727 5727 5725 5723 5722 5721 5720 5718 5717 5716 5716 5715 5714 5713 5712 5711 5709 5708 5708 5707 5706 5706 5704 5703 5701 5701 5700 5700 5700 5700 5701 5702 5702 5701 5701 5701 5701 5701 5702 5702 5701
5728 5726 5725 5724 5722 5720 5719 5717 5715 5714 5713 5713 5712 5712 5711 5710 5709 5708 5706 5705 5704 5703 5701 5701 5699 5698 5697 5697 5697 5695 5695 5695 5696 5696 5696 5696 5697 5697 5697 5697 5697 5696 5696
5725 5722 5721 5720 5718 5717 5714 5712 5709 5708 5708 5708 5709 5709 5708 5707 5706 5705 5703 5701 5700 5699 5698 5697 5696 5694 5692 5692 5690 5687 5688 5690 5690 5691 5691 5691 5691 5691 5691 5691 5691 5691 5690
5721 5720 5718 5717 5716 5715 5714 5712 5710 5708 5706 5707 5706 5705 5705 5704 5703 5702 5700 5698 5697 5695 5694 5693 5692 5689 5688 5688 5685 5679 5676 5678 5682 5685 5685 5686 5686 5686 5686 5686 5686 5685 5685
5717 5717 5717 5715 5714 5713 5713 5711 5708 5704 5703 5701 5701 5701 5701 5701 5700 5699 5698 5696 5694 5693 5690 5690 5689 5686 5683 5683 5683 5678 5672 5669 5672 5677 5679 5680 5680 5680 5680 5681 5680 5680 5680
5716 5716 5715 5714 5712 5711 5710 5707 5704 5700 5697 5698 5699 5698 5699 5698 5697 5696 5695 5693 5692 5690 5688 5687 5686 5684 5682 5678 5679 5678 5677 5674 5669 5667 5671 5674 5675 5675 5675 5676 5675 5675 5675
5715 5713 5712 5711 5709 5708 5706 5705 5702 5699 5698 5697 5697 5695 5695 5694 5694 5693 5691 5690 5688 5687 5685 5684 5682 5681 5679 5677 5675 5674 5673 5671 5669 5665 5662 5665 5667 5669 5670 5671 5670 5670 5670
5711 5710 5708 5706 5705 5705 5703 5702 5700 5697 5695 5693 5692 5691 5690 5689 5689 5689 5688 5686 5685 5684 5682 5681 5680 5678 5677 5676 5674 5673 5671 5668 5666 5663 5660 5659 5659 5662 5664 5665 5665 5665 5665